This demonstration page uses our WeatherBlox Daily Observations layout. Learn more.

Left ArrowRight Arrow

36.19886, -115.1175

Hourly Observations for December 7, 2015

Temp ( °F °C ) Dew Point ( °F °C ) Humidity (%) Winds ( mph kmh ) Pressure ( in mb ) Visibility ( mi km ) Precip ( " mm )
12:53 am 00:53 Clear 44 6.7 16 -8.9 32 32 WNW 7 11 30.35 1028 10 16 0.00 0.00
1:53 am 01:53 Clear 43 6.1 18 -7.8 37 37 WNW 5 7 30.34 1028 10 16 0.00 0.00
2:53 am 02:53 Clear 40 4.4 18 -7.8 41 41 NW 5 7 30.33 1027 10 16 0.00 0.00
3:53 am 03:53 Clear 45 7.2 16 -8.9 31 31 Calm 30.31 1026 10 16 0.00 0.00
4:53 am 04:53 Clear 42 5.6 17 -8.3 36 36 NNW 3 6 30.32 1027 10 16 0.00 0.00
5:53 am 05:53 Clear 40 4.4 19 -7.2 43 43 WNW 5 7 30.34 1028 10 16 0.00 0.00
6:53 am 06:53 Sunny 45 7.2 16 -8.9 31 31 NNW 8 13 30.35 1028 10 16 0.00 0.00
7:53 am 07:53 Sunny 43 6.1 17 -8.3 35 35 NW 5 7 30.37 1029 10 16 0.00 0.00
8:53 am 08:53 Sunny 50 10 17 -8.3 27 27 NW 6 9 30.38 1029 10 16 0.00 0.00
9:53 am 09:53 Sunny 52 11.1 16 -8.9 24 24 Calm 30.38 1029 10 16 0.00 0.00
10:53 am 10:53 Sunny 52 11.1 20 -6.7 28 28 SSE 3 6 30.35 1028 10 16 0.00 0.00
11:53 am 11:53 Sunny 55 12.8 18 -7.8 23 23 Calm 30.31 1026 10 16 0.00 0.00
12:53 pm 12:53 Sunny 59 15 17 -8.3 19 19 Calm 30.27 1025 10 16 0.00 0.00
1:53 pm 13:53 Sunny 60 15.6 18 -7.8 19 19 Calm 30.24 1024 10 16 0.00 0.00
2:53 pm 14:53 Sunny 60 15.6 18 -7.8 19 19 SSE 3 6 30.23 1024 10 16 0.00 0.00
3:53 pm 15:53 Sunny 58 14.4 18 -7.8 21 21 ESE 5 7 30.21 1023 10 16 0.00 0.00
4:53 pm 16:53 Clear 54 12.2 18 -7.8 24 24 ESE 3 6 30.22 1023 10 16 0.00 0.00
5:53 pm 17:53 Clear 52 11.1 19 -7.2 27 27 N 3 6 30.26 1025 10 16 0.00 0.00
6:53 pm 18:53 Clear 51 10.6 22 -5.6 32 32 WNW 6 9 30.26 1025 10 16 0.00 0.00
7:53 pm 19:53 Clear 51 10.6 24 -4.4 35 35 Calm 30.25 1024 10 16 0.00 0.00
8:53 pm 20:53 Clear 48 8.9 24 -4.4 39 39 N 3 6 30.25 1024 10 16 0.00 0.00
9:53 pm 21:53 Clear 47 8.3 21 -6.1 36 36 NNW 6 9 30.27 1025 10 16 0.00 0.00
10:53 pm 22:53 Clear 49 9.4 18 -7.8 29 29 NNW 7 11 30.26 1025 10 16 0.00 0.00
11:53 pm 23:53 Clear 49 9.4 18 -7.8 29 29 NNW 5 7 30.25 1024 10 16 0.00 0.00

Powered by AerisWeather